Find Starlink 34816

NORAD ID: 65467 Int'l Des: 2025-195 Owner: SPXS Country: US Constellation: starlink operational
LEOCIRCULAR

实时位置

正在加载3D地球...

关于 Starlink 34816

正在加载描述...

即将过境

Passes for default location (London). Set your location on the main map for personalized predictions.

高度历史

Loading altitude history...

两行轨道根数

1 65467U 25195K 26139.12861022 .00013463 00000-0 46566-3 0 9990
2 65467 53.1584 291.3207 0000983 81.8290 278.2822 15.30213624 40774
Epoch: May 19, 2026 • Age: 11 hours

当前状态

高度 494.0 km
速度 7.62 km/s
星下点 -52.56°S, 129.82°E
发射日期 Sep 3, 2025
运行时间 0.7 years
类型 internet

技术详情

分类 Payload
质量 575.00 kg
干质量 530.00 kg
总质量 575.00 kg
长度 0.30 m
直径 4.10 m
跨度 29.00 m
形状 Box + pan
制造商 SPXS
平台类型 Starlink V2MO
阶段状态 In Orbit
所有者/国家 SPXS/US

Most Searched